TimeMDT,TemperatureF,Dew PointF,Humidity,Sea Level PressureIn,VisibilityMPH,Wind Direction,Wind SpeedMPH,Gust SpeedMPH,PrecipitationIn,Events,Conditions,WindDirDegrees,DateUTC
12:53 AM,24.1,18.0,77,30.14,10.0,WNW,8.1,-,N/A,,Partly Cloudy,290,2013-04-19 06:53:00
1:53 AM,25.0,17.1,72,30.13,10.0,West,12.7,-,N/A,,Clear,280,2013-04-19 07:53:00
2:53 AM,24.1,17.1,75,30.10,10.0,West,9.2,-,N/A,,Clear,270,2013-04-19 08:53:00
3:53 AM,28.0,18.0,66,30.09,10.0,WNW,12.7,-,N/A,,Clear,290,2013-04-19 09:53:00
4:53 AM,27.0,19.0,72,30.09,10.0,West,12.7,-,N/A,,Clear,280,2013-04-19 10:53:00
5:53 AM,27.0,18.0,69,30.08,10.0,West,13.8,-,N/A,,Clear,270,2013-04-19 11:53:00
6:53 AM,30.0,19.9,66,30.08,10.0,West,15.0,-,N/A,,Scattered Clouds,280,2013-04-19 12:53:00
7:53 AM,35.1,23.0,61,30.09,10.0,WNW,18.4,25.3,N/A,,Scattered Clouds,290,2013-04-19 13:53:00
8:53 AM,41.0,24.1,51,30.07,10.0,WNW,18.4,25.3,N/A,,Clear,300,2013-04-19 14:53:00
9:53 AM,46.0,26.1,46,30.07,10.0,WNW,17.3,26.5,N/A,,Partly Cloudy,300,2013-04-19 15:53:00
10:53 AM,48.9,27.0,43,30.08,10.0,NNW,24.2,31.1,N/A,,Clear,330,2013-04-19 16:53:00
11:53 AM,51.1,28.9,43,30.07,10.0,NW,20.7,31.1,N/A,,Clear,320,2013-04-19 17:53:00
12:53 PM,53.1,28.9,40,30.04,10.0,NW,19.6,27.6,N/A,,Partly Cloudy,310,2013-04-19 18:53:00
1:53 PM,54.0,28.0,37,30.04,10.0,NW,18.4,21.9,N/A,,Scattered Clouds,320,2013-04-19 19:53:00
2:53 PM,55.9,27.0,33,30.02,10.0,NW,17.3,-,N/A,,Mostly Cloudy,310,2013-04-19 20:53:00
3:53 PM,55.9,26.1,32,30.00,10.0,NNW,13.8,24.2,N/A,,Scattered Clouds,330,2013-04-19 21:53:00
4:53 PM,55.0,26.1,33,30.00,10.0,NNW,12.7,20.7,N/A,,Scattered Clouds,340,2013-04-19 22:53:00
5:53 PM,55.0,25.0,31,30.01,10.0,NNW,15.0,-,N/A,,Clear,340,2013-04-19 23:53:00
6:53 PM,52.0,26.1,37,30.00,10.0,North,8.1,-,N/A,,Clear,350,2013-04-20 00:53:00
7:53 PM,43.0,27.0,53,30.03,10.0,North,-9999.0,-,N/A,,Clear,0,2013-04-20 01:53:00
8:53 PM,39.0,30.0,70,30.04,10.0,East,8.1,-,N/A,,Partly Cloudy,100,2013-04-20 02:53:00
9:53 PM,39.0,30.0,70,30.04,10.0,SE,9.2,-,N/A,,Mostly Cloudy,130,2013-04-20 03:53:00
10:53 PM,37.0,30.0,76,30.04,10.0,SE,10.4,-,N/A,,Overcast,130,2013-04-20 04:53:00
11:53 PM,37.0,30.0,76,30.03,10.0,SE,9.2,-,N/A,,Overcast,130,2013-04-20 05:53:00